EWG5MM GMMN-LPPT

Flight info

Callsign EWG5MM
Flight time 1h 8m
Altitude 36000
Route LAKAM UR722 AMSEL DCT VATZI
Aircraft A20N/M-SDE2E3FGHIRWXY/LB1

Departure

Time 2026-05-07 17:05
Airport Mohammed V International Airport (GMMN)

Arrival

Time 2026-05-07 18:14
Airport Lisbon Humberto Delgado Airport (LPPT)
Time Latitude Longitude Altitude Speed Heading
2026-05-07 16:23 33.36429 -7.58048 646 ft 0 kts 73°
2026-05-07 16:46 33.36428 -7.58052 661 ft 3 kts 73°
2026-05-07 16:46 33.36423 -7.58074 661 ft 3 kts 73°
2026-05-07 16:46 33.36417 -7.58095 661 ft 3 kts 73°
2026-05-07 16:46 33.36412 -7.58117 661 ft 3 kts 91°
2026-05-07 16:47 33.36418 -7.58139 660 ft 3 kts 134°
2026-05-07 16:47 33.36428 -7.58147 660 ft 0 kts 157°
2026-05-07 16:51 33.36421 -7.58144 660 ft 2 kts 157°
2026-05-07 16:51 33.36400 -7.58134 661 ft 4 kts 160°
2026-05-07 16:51 33.36365 -7.58121 661 ft 6 kts 164°
2026-05-07 16:52 33.36319 -7.58106 661 ft 8 kts 167°
2026-05-07 16:52 33.36271 -7.58123 661 ft 7 kts 232°
2026-05-07 16:52 33.36260 -7.58163 661 ft 1 kts 259°
2026-05-07 16:52 33.36260 -7.58166 661 ft 1 kts 259°
2026-05-07 16:53 33.36258 -7.58180 661 ft 2 kts 261°
2026-05-07 16:53 33.36257 -7.58188 661 ft 0 kts 262°
2026-05-07 16:53 33.36257 -7.58190 661 ft 0 kts 262°
2026-05-07 16:54 33.36257 -7.58189 661 ft 2 kts 262°
2026-05-07 16:54 33.36259 -7.58170 661 ft 2 kts 262°
2026-05-07 16:54 33.36260 -7.58167 661 ft 0 kts 262°
2026-05-07 16:54 33.36259 -7.58169 661 ft 1 kts 261°
2026-05-07 16:55 33.36257 -7.58184 661 ft 3 kts 259°
2026-05-07 16:55 33.36253 -7.58201 661 ft 4 kts 248°
2026-05-07 16:55 33.36226 -7.58237 661 ft 5 kts 203°
2026-05-07 16:55 33.36201 -7.58240 661 ft 6 kts 175°
2026-05-07 16:56 33.36141 -7.58221 662 ft 8 kts 163°
2026-05-07 16:56 33.36101 -7.58207 662 ft 10 kts 164°
2026-05-07 16:56 33.35928 -7.58149 663 ft 12 kts 164°
2026-05-07 16:57 33.35843 -7.58118 664 ft 13 kts 163°
2026-05-07 16:57 33.35783 -7.58097 664 ft 14 kts 163°
2026-05-07 16:57 33.35686 -7.58064 662 ft 15 kts 164°
2026-05-07 16:57 33.35604 -7.58037 664 ft 8 kts 165°
2026-05-07 16:58 33.35545 -7.58019 666 ft 10 kts 166°
2026-05-07 16:58 33.35479 -7.57996 664 ft 10 kts 161°
2026-05-07 16:58 33.35408 -7.57969 667 ft 11 kts 164°
2026-05-07 16:58 33.35326 -7.57945 667 ft 13 kts 176°
2026-05-07 16:59 33.35256 -7.58000 667 ft 13 kts 243°
2026-05-07 16:59 33.35240 -7.58062 667 ft 6 kts 253°
2026-05-07 16:59 33.35236 -7.58078 667 ft 0 kts 253°
2026-05-07 17:01 33.35235 -7.58080 667 ft 1 kts 253°
2026-05-07 17:01 33.35232 -7.58094 667 ft 3 kts 253°
2026-05-07 17:01 33.35225 -7.58120 666 ft 4 kts 253°
2026-05-07 17:02 33.35217 -7.58154 668 ft 5 kts 253°
2026-05-07 17:02 33.35203 -7.58235 669 ft 14 kts 279°
2026-05-07 17:02 33.35239 -7.58272 669 ft 6 kts 345°
2026-05-07 17:02 33.35241 -7.58273 669 ft 0 kts 345°
2026-05-07 17:05 33.35253 -7.58276 669 ft 13 kts 346°
2026-05-07 17:05 33.35597 -7.58393 664 ft 95 kts 344°
2026-05-07 17:05 33.36485 -7.58691 722 ft 161 kts 345°
2026-05-07 17:05 33.37620 -7.59090 1411 ft 174 kts 345°
2026-05-07 17:06 33.38759 -7.59538 2508 ft 170 kts 341°
2026-05-07 17:06 33.39837 -7.60279 3491 ft 193 kts 317°
2026-05-07 17:06 33.40667 -7.61622 4363 ft 215 kts 301°
2026-05-07 17:06 33.41523 -7.63260 4871 ft 239 kts 303°
2026-05-07 17:07 33.42480 -7.64887 5025 ft 247 kts 305°
2026-05-07 17:07 33.43531 -7.66569 5647 ft 255 kts 306°
2026-05-07 17:07 33.44619 -7.68271 6935 ft 257 kts 304°
2026-05-07 17:07 33.45624 -7.69831 8205 ft 257 kts 304°
2026-05-07 17:08 33.46732 -7.71526 9438 ft 263 kts 306°
2026-05-07 17:08 33.48162 -7.73054 10275 ft 291 kts 324°
2026-05-07 17:08 33.50176 -7.73908 10805 ft 328 kts 350°
2026-05-07 17:08 33.52537 -7.74041 11623 ft 348 kts 357°
2026-05-07 17:09 33.54991 -7.74018 12659 ft 358 kts 358°
2026-05-07 17:09 33.57512 -7.73983 13717 ft 365 kts 358°
2026-05-07 17:09 33.60074 -7.73957 14419 ft 370 kts 357°
2026-05-07 17:09 33.62632 -7.73941 14798 ft 374 kts 357°
2026-05-07 17:10 33.65229 -7.73930 14930 ft 375 kts 356°
2026-05-07 17:10 33.67838 -7.73923 14939 ft 376 kts 357°
2026-05-07 17:10 33.70470 -7.73918 15053 ft 381 kts 356°
2026-05-07 17:10 33.73152 -7.73914 15820 ft 387 kts 356°
2026-05-07 17:11 33.75831 -7.73907 16984 ft 386 kts 356°
2026-05-07 17:11 33.78533 -7.73902 18056 ft 389 kts 355°
2026-05-07 17:11 33.81245 -7.73899 18913 ft 394 kts 355°
2026-05-07 17:11 33.84005 -7.73896 19734 ft 399 kts 355°
2026-05-07 17:12 33.86803 -7.73893 20520 ft 405 kts 354°
2026-05-07 17:12 33.89637 -7.73889 21310 ft 410 kts 354°
2026-05-07 17:12 33.92472 -7.73884 22079 ft 415 kts 354°
2026-05-07 17:12 33.95382 -7.73880 22842 ft 421 kts 354°
2026-05-07 17:13 33.98318 -7.73875 23590 ft 426 kts 354°
2026-05-07 17:13 34.01300 -7.73869 24238 ft 430 kts 354°
2026-05-07 17:13 34.04300 -7.73864 24892 ft 434 kts 354°
2026-05-07 17:13 34.07328 -7.73858 25508 ft 437 kts 354°
2026-05-07 17:14 34.10374 -7.73851 25859 ft 438 kts 354°
2026-05-07 17:14 34.13430 -7.73844 25946 ft 439 kts 354°
2026-05-07 17:14 34.16480 -7.73838 25954 ft 440 kts 354°
2026-05-07 17:14 34.19542 -7.73864 25955 ft 439 kts 353°
2026-05-07 17:15 34.22554 -7.74000 25955 ft 439 kts 351°
2026-05-07 17:15 34.25600 -7.74206 25956 ft 438 kts 350°
2026-05-07 17:15 34.28643 -7.74441 25952 ft 438 kts 350°
2026-05-07 17:15 34.31685 -7.74681 25956 ft 438 kts 350°
2026-05-07 17:16 34.34729 -7.74916 25953 ft 438 kts 350°
2026-05-07 17:16 34.37785 -7.75144 26101 ft 442 kts 351°
2026-05-07 17:16 34.40866 -7.75368 26719 ft 445 kts 351°
2026-05-07 17:16 34.43955 -7.75586 27382 ft 446 kts 351°
2026-05-07 17:17 34.47064 -7.75802 27985 ft 448 kts 351°
2026-05-07 17:17 34.50178 -7.76019 28539 ft 451 kts 351°
2026-05-07 17:17 34.53332 -7.76238 29080 ft 454 kts 351°
2026-05-07 17:17 34.56454 -7.76455 29578 ft 457 kts 351°
2026-05-07 17:18 34.59679 -7.76680 30076 ft 460 kts 351°
2026-05-07 17:18 34.62849 -7.76901 30518 ft 462 kts 350°
2026-05-07 17:18 34.66035 -7.77121 31160 ft 459 kts 350°
2026-05-07 17:18 34.69212 -7.77338 31826 ft 455 kts 350°
2026-05-07 17:19 34.72366 -7.77554 32480 ft 452 kts 349°
2026-05-07 17:19 34.75495 -7.77779 33097 ft 449 kts 349°
2026-05-07 17:19 34.78607 -7.78026 33679 ft 447 kts 348°
2026-05-07 17:19 34.81704 -7.78285 34213 ft 445 kts 348°
2026-05-07 17:20 34.84787 -7.78548 34676 ft 443 kts 348°
2026-05-07 17:20 34.87853 -7.78811 35132 ft 442 kts 348°
2026-05-07 17:20 34.90920 -7.79073 35584 ft 441 kts 348°
2026-05-07 17:20 34.93956 -7.79332 35892 ft 443 kts 347°
2026-05-07 17:21 35.00018 -7.79837 35952 ft 433 kts 347°
2026-05-07 17:21 35.06028 -7.80341 35951 ft 432 kts 347°
2026-05-07 17:22 35.12022 -7.80849 35953 ft 432 kts 347°
2026-05-07 17:22 35.18035 -7.81357 35951 ft 433 kts 347°
2026-05-07 17:23 35.24001 -7.81860 35951 ft 433 kts 347°
2026-05-07 17:23 35.30017 -7.82367 35951 ft 434 kts 347°
2026-05-07 17:24 35.36045 -7.82876 35952 ft 434 kts 347°
2026-05-07 17:24 35.42065 -7.83387 35951 ft 434 kts 347°
2026-05-07 17:25 35.48099 -7.83924 35952 ft 435 kts 347°
2026-05-07 17:25 35.54133 -7.84471 35952 ft 435 kts 347°
2026-05-07 17:26 35.60127 -7.85014 35951 ft 435 kts 347°
2026-05-07 17:26 35.66169 -7.85560 35946 ft 436 kts 347°
2026-05-07 17:27 35.72015 -7.86892 35949 ft 418 kts 332°
2026-05-07 17:27 35.77391 -7.89474 35948 ft 414 kts 328°
2026-05-07 17:28 35.82710 -7.92218 35945 ft 415 kts 328°
2026-05-07 17:28 35.87999 -7.94961 35947 ft 415 kts 328°
2026-05-07 17:29 35.93323 -7.97725 35945 ft 415 kts 328°
2026-05-07 17:29 35.98650 -8.00495 35944 ft 416 kts 328°
2026-05-07 17:30 36.03985 -8.03274 35944 ft 416 kts 328°
2026-05-07 17:30 36.09325 -8.06059 35945 ft 417 kts 328°
2026-05-07 17:31 36.14661 -8.08847 35941 ft 417 kts 328°
2026-05-07 17:31 36.20011 -8.11646 35941 ft 417 kts 328°
2026-05-07 17:32 36.25313 -8.14424 35944 ft 417 kts 327°
2026-05-07 17:32 36.30661 -8.17230 35940 ft 417 kts 328°
2026-05-07 17:33 36.34244 -8.19113 35943 ft 418 kts 328°
2026-05-07 17:34 36.38975 -8.21601 35934 ft 418 kts 327°
2026-05-07 17:34 36.43074 -8.23760 35945 ft 418 kts 327°
2026-05-07 17:35 36.48402 -8.26570 35943 ft 419 kts 327°
2026-05-07 17:35 36.53762 -8.29401 35938 ft 419 kts 327°
2026-05-07 17:36 36.59124 -8.32237 35944 ft 419 kts 327°
2026-05-07 17:36 36.64493 -8.35082 35937 ft 419 kts 327°
2026-05-07 17:37 36.69824 -8.37910 35936 ft 419 kts 327°
2026-05-07 17:37 36.75186 -8.40759 35932 ft 419 kts 327°
2026-05-07 17:38 36.80433 -8.43551 35933 ft 419 kts 327°
2026-05-07 17:38 36.85892 -8.46472 35939 ft 437 kts 328°
2026-05-07 17:39 36.91536 -8.49485 35928 ft 443 kts 328°
2026-05-07 17:39 36.97211 -8.52512 35930 ft 443 kts 328°
2026-05-07 17:40 37.02842 -8.55525 35933 ft 443 kts 328°
2026-05-07 17:40 37.08516 -8.58568 35932 ft 444 kts 328°
2026-05-07 17:41 37.14198 -8.61621 35933 ft 444 kts 328°
2026-05-07 17:41 37.19870 -8.64673 35817 ft 443 kts 328°
2026-05-07 17:42 37.22694 -8.66192 35116 ft 442 kts 328°
2026-05-07 17:42 37.25537 -8.67729 34169 ft 447 kts 328°
2026-05-07 17:42 37.28408 -8.69283 33117 ft 452 kts 329°
2026-05-07 17:42 37.31309 -8.70854 32040 ft 457 kts 329°
2026-05-07 17:43 37.34198 -8.72417 31018 ft 460 kts 330°
2026-05-07 17:43 37.37156 -8.74016 29968 ft 464 kts 331°
2026-05-07 17:43 37.40122 -8.75619 29057 ft 461 kts 331°
2026-05-07 17:43 37.43049 -8.77200 28252 ft 455 kts 331°
2026-05-07 17:44 37.45939 -8.78764 27481 ft 450 kts 332°
2026-05-07 17:44 37.48802 -8.80316 26725 ft 445 kts 332°
2026-05-07 17:44 37.51628 -8.81851 26025 ft 440 kts 332°
2026-05-07 17:44 37.54419 -8.83369 25370 ft 435 kts 332°
2026-05-07 17:45 37.57187 -8.84877 25026 ft 434 kts 332°
2026-05-07 17:45 37.59981 -8.86329 24682 ft 432 kts 335°
2026-05-07 17:45 37.62813 -8.87553 23969 ft 430 kts 338°
2026-05-07 17:45 37.65651 -8.88703 23220 ft 427 kts 338°
2026-05-07 17:46 37.68433 -8.89822 22423 ft 423 kts 338°
2026-05-07 17:46 37.71223 -8.90948 21654 ft 419 kts 338°
2026-05-07 17:46 37.73982 -8.92065 20906 ft 414 kts 338°
2026-05-07 17:46 37.76717 -8.93176 20176 ft 410 kts 338°
2026-05-07 17:47 37.79409 -8.94271 19447 ft 405 kts 338°
2026-05-07 17:47 37.82074 -8.95357 18923 ft 397 kts 338°
2026-05-07 17:47 37.84667 -8.96413 18397 ft 389 kts 338°
2026-05-07 17:47 37.87223 -8.97458 17727 ft 383 kts 339°
2026-05-07 17:48 37.89713 -8.98476 17036 ft 379 kts 339°
2026-05-07 17:48 37.92212 -8.99499 16349 ft 374 kts 339°
2026-05-07 17:48 37.94675 -9.00508 15674 ft 370 kts 340°
2026-05-07 17:48 37.97111 -9.01506 15012 ft 366 kts 340°
2026-05-07 17:49 37.99522 -9.02496 14358 ft 363 kts 340°
2026-05-07 17:49 38.01906 -9.03494 13718 ft 359 kts 340°
2026-05-07 17:49 38.04269 -9.04490 12994 ft 356 kts 340°
2026-05-07 17:49 38.06606 -9.05477 12317 ft 352 kts 340°
2026-05-07 17:50 38.08916 -9.06453 11637 ft 348 kts 340°
2026-05-07 17:50 38.11193 -9.07416 11165 ft 339 kts 340°
2026-05-07 17:50 38.13376 -9.08339 10920 ft 324 kts 340°
2026-05-07 17:50 38.15485 -9.09154 10698 ft 310 kts 347°
2026-05-07 17:51 38.17575 -9.09164 10440 ft 295 kts 14°
2026-05-07 17:51 38.19333 -9.08057 10003 ft 283 kts 42°
2026-05-07 17:51 38.20687 -9.06324 9577 ft 272 kts 51°
2026-05-07 17:51 38.21908 -9.04531 9061 ft 266 kts 52°
2026-05-07 17:52 38.23104 -9.02749 8511 ft 263 kts 52°
2026-05-07 17:52 38.24278 -9.00995 7974 ft 260 kts 52°
2026-05-07 17:52 38.25449 -8.99244 7436 ft 258 kts 52°
2026-05-07 17:52 38.26605 -8.97516 7047 ft 255 kts 52°
2026-05-07 17:53 38.27753 -8.95805 6940 ft 256 kts 52°
2026-05-07 17:53 38.28913 -8.94079 6929 ft 256 kts 52°
2026-05-07 17:53 38.30054 -8.92383 6928 ft 255 kts 52°
2026-05-07 17:53 38.31225 -8.90643 6927 ft 255 kts 52°
2026-05-07 17:54 38.32361 -8.88961 6931 ft 255 kts 51°
2026-05-07 17:54 38.33517 -8.87243 6929 ft 255 kts 52°
2026-05-07 17:54 38.34673 -8.85528 6929 ft 255 kts 52°
2026-05-07 17:54 38.35831 -8.83813 6925 ft 255 kts 52°
2026-05-07 17:55 38.36991 -8.82099 6924 ft 255 kts 52°
2026-05-07 17:55 38.38150 -8.80383 6926 ft 256 kts 52°
2026-05-07 17:55 38.39310 -8.78665 6927 ft 255 kts 52°
2026-05-07 17:55 38.40454 -8.76970 6929 ft 255 kts 52°
2026-05-07 17:56 38.41615 -8.75255 6924 ft 255 kts 52°
2026-05-07 17:56 38.42750 -8.73577 6923 ft 256 kts 52°
2026-05-07 17:56 38.43912 -8.71860 6922 ft 256 kts 52°
2026-05-07 17:56 38.45094 -8.70169 6923 ft 256 kts 46°
2026-05-07 17:57 38.46558 -8.68864 6916 ft 259 kts 25°
2026-05-07 17:57 38.47705 -8.68452 6920 ft 260 kts
2026-05-07 17:57 38.49846 -8.69117 6925 ft 255 kts 322°
2026-05-07 17:57 38.50921 -8.70829 6922 ft 247 kts 287°
2026-05-07 17:58 38.51111 -8.72936 6922 ft 238 kts 256°
2026-05-07 17:58 38.50573 -8.74897 6918 ft 233 kts 240°
2026-05-07 17:58 38.49816 -8.76728 6915 ft 234 kts 237°
2026-05-07 17:58 38.49044 -8.78525 6922 ft 234 kts 238°
2026-05-07 17:59 38.48272 -8.80350 6915 ft 234 kts 238°
2026-05-07 17:59 38.47511 -8.82180 6921 ft 234 kts 239°
2026-05-07 17:59 38.46755 -8.84017 6918 ft 234 kts 239°
2026-05-07 17:59 38.46000 -8.85862 6926 ft 234 kts 239°
2026-05-07 18:00 38.45248 -8.87703 6915 ft 234 kts 239°
2026-05-07 18:00 38.44498 -8.89543 6915 ft 234 kts 239°
2026-05-07 18:00 38.43746 -8.91387 6924 ft 234 kts 239°
2026-05-07 18:00 38.42996 -8.93226 6925 ft 234 kts 239°
2026-05-07 18:01 38.42257 -8.95040 6926 ft 234 kts 239°
2026-05-07 18:01 38.41498 -8.96898 6932 ft 234 kts 239°
2026-05-07 18:01 38.40756 -8.98714 6925 ft 234 kts 239°
2026-05-07 18:01 38.39931 -9.00489 6927 ft 233 kts 234°
2026-05-07 18:02 38.38151 -9.03936 6932 ft 232 kts 234°
2026-05-07 18:02 38.37257 -9.05650 6937 ft 232 kts 234°
2026-05-07 18:02 38.36365 -9.07362 6937 ft 232 kts 234°
2026-05-07 18:03 38.35472 -9.09075 6937 ft 232 kts 234°
2026-05-07 18:03 38.34706 -9.10892 6934 ft 234 kts 248°
2026-05-07 18:03 38.34288 -9.12867 6938 ft 235 kts 255°
2026-05-07 18:03 38.33971 -9.14912 6937 ft 236 kts 256°
2026-05-07 18:04 38.33669 -9.16962 6937 ft 236 kts 257°
2026-05-07 18:04 38.33365 -9.19009 6940 ft 235 kts 256°
2026-05-07 18:04 38.33055 -9.21060 6942 ft 235 kts 256°
2026-05-07 18:04 38.32793 -9.23113 6941 ft 236 kts 264°
2026-05-07 18:05 38.32906 -9.25201 6937 ft 238 kts 276°
2026-05-07 18:05 38.33249 -9.27264 6936 ft 240 kts 284°
2026-05-07 18:05 38.33987 -9.29175 6931 ft 244 kts 304°
2026-05-07 18:05 38.35283 -9.30576 6934 ft 249 kts 332°
2026-05-07 18:06 38.36956 -9.30996 6787 ft 253 kts
2026-05-07 18:06 38.38686 -9.30595 6421 ft 253 kts 13°
2026-05-07 18:06 38.40365 -9.30013 6194 ft 246 kts 14°
2026-05-07 18:06 38.41979 -9.29439 6057 ft 235 kts 14°
2026-05-07 18:07 38.43526 -9.28901 5939 ft 226 kts 14°
2026-05-07 18:07 38.45008 -9.28394 5824 ft 216 kts 13°
2026-05-07 18:07 38.46440 -9.27911 5676 ft 210 kts 13°
2026-05-07 18:07 38.47841 -9.27443 5453 ft 207 kts 12°
2026-05-07 18:08 38.49225 -9.26984 5251 ft 204 kts 12°
2026-05-07 18:08 38.50592 -9.26531 5048 ft 202 kts 12°
2026-05-07 18:08 38.51926 -9.26090 4840 ft 200 kts 11°
2026-05-07 18:08 38.53263 -9.25647 4631 ft 197 kts 11°
2026-05-07 18:09 38.54582 -9.25212 4415 ft 195 kts 11°
2026-05-07 18:09 38.55893 -9.24779 4193 ft 195 kts 11°
2026-05-07 18:09 38.57202 -9.24408 4046 ft 190 kts
2026-05-07 18:09 38.58489 -9.23986 4025 ft 191 kts 17°
2026-05-07 18:10 38.59719 -9.23356 3952 ft 190 kts 18°
2026-05-07 18:10 38.60945 -9.22747 3736 ft 190 kts 18°
2026-05-07 18:10 38.62172 -9.22114 3480 ft 190 kts 18°
2026-05-07 18:10 38.63385 -9.21470 3216 ft 188 kts 18°
2026-05-07 18:11 38.64592 -9.20827 2913 ft 186 kts 17°
2026-05-07 18:11 38.65376 -9.20412 2743 ft 182 kts 18°
2026-05-07 18:11 38.66894 -9.19600 2407 ft 175 kts 17°
2026-05-07 18:11 38.68004 -9.19010 2170 ft 172 kts 18°
2026-05-07 18:12 38.69091 -9.18430 1926 ft 166 kts 17°
2026-05-07 18:12 38.70136 -9.17872 1723 ft 161 kts 18°
2026-05-07 18:12 38.71149 -9.17330 1514 ft 153 kts 16°
2026-05-07 18:12 38.72084 -9.16828 1304 ft 139 kts 15°
2026-05-07 18:13 38.72944 -9.16370 1061 ft 130 kts 17°
2026-05-07 18:13 38.73743 -9.15916 932 ft 123 kts 15°
2026-05-07 18:13 38.74523 -9.15490 734 ft 121 kts 16°
2026-05-07 18:13 38.75312 -9.15100 642 ft 123 kts 18°
2026-05-07 18:14 38.76089 -9.14681 510 ft 122 kts 18°
2026-05-07 18:14 38.76854 -9.14277 355 ft 115 kts 24°
2026-05-07 18:14 38.77385 -9.13990 356 ft 47 kts 22°
2026-05-07 18:14 38.77637 -9.13853 353 ft 38 kts 23°
2026-05-07 18:15 38.77886 -9.13722 352 ft 39 kts 24°
2026-05-07 18:15 38.78138 -9.13586 356 ft 40 kts 25°
2026-05-07 18:15 38.78331 -9.13405 352 ft 19 kts 47°
2026-05-07 18:15 38.78369 -9.13343 354 ft 1 kts 66°
2026-05-07 18:16 38.78375 -9.13322 356 ft 4 kts 69°
2026-05-07 18:16 38.78374 -9.13295 357 ft 2 kts 99°
2026-05-07 18:16 38.78373 -9.13288 358 ft 1 kts 110°
2026-05-07 18:16 38.78361 -9.13271 355 ft 4 kts 140°
2026-05-07 18:17 38.78341 -9.13263 353 ft 3 kts 174°
2026-05-07 18:17 38.78312 -9.13265 351 ft 5 kts 188°
2026-05-07 18:17 38.78271 -9.13275 357 ft 7 kts 193°
2026-05-07 18:17 38.78224 -9.13303 352 ft 8 kts 206°
2026-05-07 18:18 38.78165 -9.13340 356 ft 9 kts 203°
2026-05-07 18:18 38.78113 -9.13365 351 ft 9 kts 200°
2026-05-07 18:18 38.78047 -9.13394 353 ft 11 kts 197°
2026-05-07 18:18 38.77977 -9.13418 354 ft 12 kts 206°
2026-05-07 18:19 38.77903 -9.13484 350 ft 14 kts 212°
2026-05-07 18:19 38.77809 -9.13534 357 ft 16 kts 201°
2026-05-07 18:19 38.77700 -9.13591 357 ft 17 kts 198°
2026-05-07 18:19 38.77578 -9.13578 350 ft 19 kts 168°
2026-05-07 18:20 38.77443 -9.13541 353 ft 21 kts 168°
2026-05-07 18:20 38.77291 -9.13502 350 ft 23 kts 168°
2026-05-07 18:20 38.77125 -9.13457 350 ft 26 kts 168°
2026-05-07 18:20 38.76952 -9.13411 355 ft 25 kts 167°
2026-05-07 18:21 38.76853 -9.13383 355 ft 14 kts 167°
2026-05-07 18:21 38.76755 -9.13375 358 ft 14 kts 202°
2026-05-07 18:21 38.76673 -9.13451 350 ft 16 kts 223°
2026-05-07 18:21 38.76638 -9.13583 353 ft 17 kts 260°
2026-05-07 18:22 38.76593 -9.13668 352 ft 9 kts 169°
2026-05-07 18:22 38.76556 -9.13667 354 ft 8 kts 205°
2026-05-07 18:22 38.76531 -9.13746 350 ft 5 kts 221°
2026-05-07 18:22 38.76494 -9.13750 350 ft 6 kts 180°
2026-05-07 18:23 38.76450 -9.13750 350 ft 0 kts 179°